• In Netherlands
  • List of Countries
  • For 7 days
  • Water Temperature
  • Satellite Maps
  • Weather Map
  • Weather Widgets
  • user-avatar
    Login

    Hourly Weather San Luis

    Today, 17 January, Tuesday

    Time Temperature Precipitation Wind Pressure Humidity
    00:00 +25°C° 0 mm 3 mps 697 mmHg 33%
    01:00 +25°C° 0 mm 2 mps 696 mmHg 32%
    02:00 +24°C° 0 mm 2 mps 696 mmHg 31%
    03:00 +24°C° 0 mm 2 mps 696 mmHg 31%
    04:00 +24°C° 0 mm 2 mps 696 mmHg 32%
    05:00 +23°C° 0 mm 2 mps 697 mmHg 32%
    06:00 +24°C° 0 mm 3 mps 697 mmHg 32%
    07:00 +26°C° 0 mm 4 mps 698 mmHg 32%
    08:00 +27°C° 0 mm 5 mps 698 mmHg 32%
    09:00 +28°C° 0 mm 4 mps 699 mmHg 29%
    10:00 +30°C° 0 mm 3 mps 699 mmHg 27%
    11:00 +33°C° 0 mm 3 mps 699 mmHg 24%
    12:00 +34°C° 0 mm 2 mps 698 mmHg 22%
    13:00 +35°C° 0 mm 2 mps 698 mmHg 20%
    14:00 +36°C° 0 mm 2 mps 697 mmHg 19%
    15:00 +36°C° 0 mm 2 mps 696 mmHg 18%
    16:00 +36°C° 0 mm 2 mps 695 mmHg 18%
    17:00 +36°C° 0 mm 1 mps 695 mmHg 18%
    18:00 +35°C° 0 mm 2 mps 695 mmHg 22%
    19:00 +31°C° 0 mm 2 mps 694 mmHg 25%
    20:00 +29°C° 0 mm 3 mps 694 mmHg 29%
    21:00 +29°C° 0 mm 3 mps 695 mmHg 31%
    22:00 +28°C° 0 mm 3 mps 695 mmHg 32%
    23:00 +27°C° 0 mm 4 mps 696 mmHg 34%

    Tomorrow, 18 January, Wednesday

    Time Temperature Precipitation Wind Pressure Humidity
    00:00 +27°C° 0 mm 4 mps 696 mmHg 35%
    01:00 +26°C° 0 mm 4 mps 696 mmHg 35%
    02:00 +26°C° 0 mm 3 mps 696 mmHg 36%
    03:00 +26°C° 0 mm 3 mps 696 mmHg 36%
    04:00 +25°C° 0 mm 4 mps 696 mmHg 36%
    05:00 +25°C° 0 mm 4 mps 696 mmHg 36%
    06:00 +27°C° 0 mm 4 mps 697 mmHg 34%
    07:00 +28°C° 0 mm 4 mps 698 mmHg 31%
    08:00 +30°C° 0 mm 4 mps 698 mmHg 28%
    09:00 +32°C° 0 mm 5 mps 698 mmHg 26%
    10:00 +34°C° 0 mm 5 mps 699 mmHg 24%
    11:00 +35°C° 0 mm 5 mps 699 mmHg 21%
    12:00 +36°C° 0 mm 6 mps 698 mmHg 20%
    13:00 +39°C° 0 mm 6 mps 698 mmHg 18%
    14:00 +40°C° 0 mm 7 mps 697 mmHg 17%
    15:00 +40°C° 0 mm 6 mps 697 mmHg 17%
    16:00 +40°C° 0 mm 6 mps 696 mmHg 17%
    17:00 +40°C° 0 mm 6 mps 695 mmHg 16%
    18:00 +38°C° 0 mm 6 mps 695 mmHg 19%
    19:00 +34°C° 0 mm 5 mps 695 mmHg 22%
    20:00 +32°C° 0 mm 4 mps 695 mmHg 24%
    21:00 +32°C° 0 mm 5 mps 695 mmHg 24%
    22:00 +32°C° 0 mm 6 mps 696 mmHg 25%
    23:00 +30°C° 0 mm 6 mps 696 mmHg 25%

    Day after tomorrow, 19 January, Thursday

    Time Temperature Precipitation Wind Pressure Humidity
    00:00 +30°C° 0 mm 7 mps 696 mmHg 25%
    01:00 +29°C° 0 mm 7 mps 696 mmHg 25%
    02:00 +29°C° 0 mm 7 mps 695 mmHg 25%
    03:00 +29°C° 0 mm 8 mps 695 mmHg 25%
    04:00 +28°C° 0 mm 8 mps 696 mmHg 26%
    05:00 +28°C° 0 mm 8 mps 696 mmHg 26%
    06:00 +29°C° 0 mm 9 mps 696 mmHg 25%
    07:00 +32°C° 0 mm 9 mps 697 mmHg 24%
    08:00 +33°C° 0 mm 10 mps 698 mmHg 24%
    09:00 +34°C° 0 mm 10 mps 698 mmHg 22%
    10:00 +37°C° 0 mm 10 mps 698 mmHg 20%
    11:00 +38°C° 0 mm 11 mps 698 mmHg 19%
    12:00 +39°C° 0 mm 10 mps 698 mmHg 18%
    13:00 +40°C° 0 mm 9 mps 698 mmHg 17%
    14:00 +41°C° 0 mm 8 mps 697 mmHg 16%
    15:00 +41°C° 0 mm 7 mps 697 mmHg 16%
    16:00 +41°C° 0 mm 6 mps 697 mmHg 16%
    17:00 +40°C° 0 mm 6 mps 696 mmHg 16%
    18:00 +37°C° 0 mm 5 mps 696 mmHg 19%
    19:00 +35°C° 0 mm 4 mps 696 mmHg 21%
    20:00 +33°C° 0 mm 3 mps 696 mmHg 24%
    21:00 +32°C° 0 mm 4 mps 697 mmHg 25%
    22:00 +30°C° 0 mm 4 mps 697 mmHg 25%
    23:00 +30°C° 0 mm 4 mps 698 mmHg 25%

    20 January, Friday

    Time Temperature Precipitation Wind Pressure Humidity
    00:00 +29°C° 0 mm 4 mps 697 mmHg 26%
    01:00 +29°C° 0 mm 5 mps 697 mmHg 26%
    02:00 +28°C° 0 mm 5 mps 697 mmHg 27%
    03:00 +28°C° 0 mm 6 mps 697 mmHg 26%
    04:00 +29°C° 0 mm 6 mps 697 mmHg 25%
    05:00 +29°C° 0 mm 7 mps 698 mmHg 24%
    06:00 +31°C° 0 mm 8 mps 698 mmHg 25%
    07:00 +32°C° 0 mm 9 mps 699 mmHg 26%
    08:00 +33°C° 0 mm 10 mps 700 mmHg 27%
    09:00 +34°C° 0 mm 10 mps 700 mmHg 25%
    10:00 +37°C° 0 mm 10 mps 700 mmHg 23%
    11:00 +38°C° 0 mm 10 mps 700 mmHg 21%
    12:00 +39°C° 0 mm 10 mps 700 mmHg 20%
    13:00 +40°C° 0 mm 9 mps 699 mmHg 18%
    14:00 +41°C° 0 mm 8 mps 699 mmHg 17%
    15:00 +41°C° 0 mm 8 mps 698 mmHg 16%
    16:00 +41°C° 0 mm 8 mps 697 mmHg 16%
    17:00 +41°C° 0 mm 7 mps 697 mmHg 16%
    18:00 +39°C° 0 mm 6 mps 697 mmHg 18%
    19:00 +36°C° 0 mm 5 mps 697 mmHg 20%
    20:00 +33°C° 0 mm 4 mps 697 mmHg 22%
    21:00 +33°C° 0 mm 4 mps 697 mmHg 23%
    22:00 +32°C° 0 mm 5 mps 697 mmHg 23%
    23:00 +30°C° 0 mm 5 mps 698 mmHg 24%

    21 January, Saturday

    Time Temperature Precipitation Wind Pressure Humidity
    00:00 +30°C° 0 mm 6 mps 697 mmHg 23%
    01:00 +30°C° 0 mm 6 mps 697 mmHg 22%
    02:00 +29°C° 0 mm 7 mps 697 mmHg 21%
    03:00 +29°C° 0 mm 7 mps 697 mmHg 21%
    04:00 +29°C° 0 mm 7 mps 697 mmHg 22%
    05:00 +28°C° 0 mm 7 mps 697 mmHg 22%
    06:00 +31°C° 0 mm 8 mps 698 mmHg 21%
    07:00 +32°C° 0 mm 8 mps 699 mmHg 20%
    08:00 +33°C° 0 mm 9 mps 699 mmHg 19%
    09:00 +35°C° 0 mm 9 mps 700 mmHg 17%
    10:00 +37°C° 0 mm 8 mps 700 mmHg 16%
    11:00 +39°C° 0 mm 7 mps 700 mmHg 15%
    12:00 +40°C° 0 mm 6 mps 699 mmHg 14%
    13:00 +41°C° 0 mm 5 mps 699 mmHg 13%
    14:00 +41°C° 0 mm 4 mps 698 mmHg 13%
    15:00 +41°C° 0 mm 4 mps 698 mmHg 12%
    16:00 +40°C° 0 mm 3 mps 697 mmHg 12%
    17:00 +42°C° 0 mm 3 mps 697 mmHg 12%
    18:00 +38°C° 0 mm 3 mps 697 mmHg 14%
    19:00 +36°C° 0 mm 3 mps 697 mmHg 17%
    20:00 +34°C° 0 mm 2 mps 696 mmHg 19%
    21:00 +33°C° 0 mm 3 mps 697 mmHg 20%
    22:00 +31°C° 0 mm 3 mps 697 mmHg 20%
    23:00 +30°C° 0 mm 3 mps 697 mmHg 21%

    22 January, Sunday

    Time Temperature Precipitation Wind Pressure Humidity
    00:00 +30°C° 0 mm 3 mps 697 mmHg 22%
    01:00 +29°C° 0 mm 3 mps 697 mmHg 22%
    02:00 +28°C° 0 mm 3 mps 697 mmHg 23%
    03:00 +28°C° 0 mm 3 mps 697 mmHg 24%
    04:00 +28°C° 0 mm 3 mps 697 mmHg 26%
    05:00 +27°C° 0 mm 3 mps 697 mmHg 27%
    06:00 +29°C° 0 mm 4 mps 697 mmHg 26%
    07:00 +32°C° 0 mm 5 mps 698 mmHg 25%
    08:00 +34°C° 0 mm 5 mps 699 mmHg 24%
    09:00 +35°C° 0 mm 6 mps 699 mmHg 22%
    10:00 +38°C° 0 mm 6 mps 699 mmHg 21%
    11:00 +40°C° 0 mm 6 mps 699 mmHg 20%
    12:00 +40°C° 0 mm 5 mps 698 mmHg 19%
    13:00 +41°C° 0 mm 5 mps 698 mmHg 19%
    14:00 +42°C° 0 mm 4 mps 697 mmHg 18%
    15:00 +40°C° 0.1 mm 3 mps 697 mmHg 19%
    16:00 +40°C° 0.1 mm 3 mps 696 mmHg 20%
    17:00 +39°C° 0.1 mm 2 mps 696 mmHg 21%
    18:00 +37°C° 0.2 mm 3 mps 696 mmHg 25%
    19:00 +35°C° 0.2 mm 3 mps 696 mmHg 29%
    20:00 +32°C° 0.2 mm 4 mps 696 mmHg 34%
    21:00 +31°C° 0.2 mm 3 mps 696 mmHg 37%
    22:00 +30°C° 0.2 mm 3 mps 696 mmHg 41%
    23:00 +29°C° 0.2 mm 3 mps 697 mmHg 44%
    Show more